Location: *
(45.0500°N, 12.0500°E)
Time: 11:02:14
(UTC+00:00)

SL-4 R/B - Pass Details

Date: 09 April 2020
Orbit: 428 x 666 km, 51.6° (Epoch: 25 May)

Event Time Altitude Azimuth Distance (km) Brightness Sun altitude
Rises 19:02:22 0° 267° (W) 2,395 6.5 -12.9°
Reaches altitude 10° 19:04:35 10° 277° (W) 1,524 5.5 -13.2°
Maximum altitude 19:07:44 34° 345° (NNW) 725 3.0 -13.7°
Drops below altitude 10° 19:10:56 10° 53° (NE) 1,547 4.1 -14.2°
Enters shadow 19:11:15 - 55° (NE) 1,672 4.2 -14.3°
